Palmer, AK

11:23 PM AKDT on March 24, 2017 (GMT -0800)
Palmer Municipal

Weather History for PAAQ - February, 2012

Change the Weather History Date:

Wednesday, February 22, 2012

  Actual Average Record
Temperature  
Mean Temperature 22 °F -  
Max Temperature 30 °F 27 °F 48 °F (2015)
Min Temperature 15 °F 9 °F -18 °F (1990)
Degree Days  
Heating Degree Days 42    
Moisture  
Dew Point 21 °F    
Average Humidity 86    
Maximum Humidity 100    
Minimum Humidity 64    
Precipitation  
Precipitation 0.01 in - - ()
Sea Level Pressure  
Sea Level Pressure 29.82 in    
Wind  
Wind Speed 3 mph (NE)    
Max Wind Speed 8 mph    
Max Gust Speed -    
Visibility 6 miles    
Events Fog , Snow    
Averages and records for this station are not official NWS values.
T = Trace of Precipitation, MM = Missing Value Source: NWS Daily Summary

Daily Weather History Graph

Daily Weather History Graph

Search for Another Location

Airport or City:

Trip Planner

Search our weather history database for the weather conditions in past years. The results will help you decide how hot, cold, wet, or windy it might be!

Date:

Astronomy

Feb. 22, 2012 Rise Set
Actual Time 8:20 AM AKST 6:00 PM AKST
Civil Twilight 7:35 AM AKST 6:45 PM AKST
Nautical Twilight 6:44 AM AKST 7:36 PM AKST
Astronomical Twilight 5:53 AM AKST 8:27 PM AKST
Moon 7:52 AM AKST (2/22) 7:56 PM AKST (2/22)
Length of Visible Light 11h 10m
Length of Day
9h 40m
New Moon, 1% of the Moon is Illuminated
Feb 22
New Moon
Feb 29
First Quarter
Mar 8
Full
Mar 14
Last Quarter
Mar 22
New

Hourly Weather History & Observations

Time (AKST) Temp. Windchill Dew Point Humidity Pressure Visibility Wind Dir Wind Speed Gust Speed Precip Events Conditions
12:53 AM 28.9 °F 21.1 °F 24.1 °F 82% 29.55 in 10.0 mi NNE 8.1 mph - N/A   Overcast
1:53 AM 30.0 °F 25.2 °F 21.9 °F 72% 29.58 in 9.0 mi NE 4.6 mph - 0.00 in Snow Light Snow
2:53 AM 28.9 °F 25.2 °F 21.9 °F 75% 29.60 in 10.0 mi NE 3.5 mph - 0.00 in   Overcast
3:53 AM 28.0 °F 21.7 °F 21.0 °F 75% 29.63 in 10.0 mi NNE 5.8 mph - N/A   Overcast
4:53 AM 27.0 °F - 19.9 °F 75% 29.65 in 10.0 mi Calm Calm - N/A   Overcast
5:53 AM 24.1 °F - 21.9 °F 91% 29.68 in 10.0 mi Calm Calm - N/A   Overcast
6:40 AM 21.2 °F - 21.2 °F 100% 29.69 in 1.8 mi Calm Calm - N/A   Mostly Cloudy
6:51 AM 21.2 °F - 21.2 °F 100% 29.70 in 3.0 mi Calm Calm - N/A   Mostly Cloudy
6:53 AM 23.0 °F - 21.0 °F 92% 29.69 in 4.0 mi Calm Calm - N/A   Mostly Cloudy
7:00 AM 19.4 °F - 19.4 °F 100% 29.70 in 1.5 mi Calm Calm - N/A   Mostly Cloudy
7:02 AM 19.4 °F - 17.6 °F 93% 29.70 in 0.8 mi Calm Calm - N/A   Mostly Cloudy
7:25 AM 19.4 °F - 17.6 °F 93% 29.71 in 1.2 mi Calm Calm - N/A   Scattered Clouds
7:30 AM 19.4 °F - 17.6 °F 93% 29.71 in 3.0 mi Calm Calm - N/A   Partly Cloudy
7:50 AM 17.6 °F - 15.8 °F 93% 29.72 in 1.8 mi Calm Calm - N/A   Clear
7:53 AM 19.9 °F - 17.1 °F 89% 29.71 in 1.0 mi Calm Calm - N/A   Clear
8:00 AM 15.8 °F - 15.8 °F 100% 29.72 in 0.5 mi Calm Calm - N/A Fog Light Freezing Fog
8:48 AM 21.2 °F - 19.4 °F 93% 29.74 in 2.5 mi Calm Calm - N/A   Mostly Cloudy
8:53 AM 21.0 °F - 21.0 °F 100% 29.74 in 10.0 mi Calm Calm - N/A   Overcast
9:53 AM 24.1 °F - 24.1 °F 100% 29.77 in 9.0 mi Calm Calm - 0.00 in   Mostly Cloudy
10:53 AM 26.1 °F - 23.0 °F 88% 29.80 in 10.0 mi Calm Calm - N/A   Overcast
11:53 AM 27.0 °F - 21.9 °F 81% 29.82 in 10.0 mi Calm Calm - N/A   Overcast
12:53 PM 28.0 °F - 21.9 °F 78% 29.85 in 10.0 mi Calm Calm - N/A   Overcast
1:53 PM 30.0 °F 25.2 °F 19.9 °F 66% 29.86 in 10.0 mi ENE 4.6 mph - N/A   Overcast
2:53 PM 28.9 °F 23.9 °F 18.0 °F 64% 29.87 in 10.0 mi ESE 4.6 mph - N/A   Overcast
3:53 PM 28.9 °F 23.9 °F 19.0 °F 67% 29.88 in 10.0 mi ESE 4.6 mph - N/A   Overcast
4:53 PM 27.0 °F 20.5 °F 19.0 °F 72% 29.90 in 10.0 mi ESE 5.8 mph - N/A   Overcast
5:53 PM 27.0 °F - 19.9 °F 75% 29.91 in 10.0 mi Calm Calm - N/A   Overcast
6:53 PM 27.0 °F 23.0 °F 19.9 °F 75% 29.94 in 9.0 mi ESE 3.5 mph - 0.00 in   Overcast
7:01 PM 26.6 °F - 19.4 °F 74% 29.94 in 2.0 mi Calm Calm - 0.00 in Snow Light Snow
7:13 PM 26.6 °F - 19.4 °F 74% 29.95 in 9.0 mi Calm Calm - 0.00 in   Overcast
7:53 PM 27.0 °F 21.6 °F 24.1 °F 89% 29.95 in 9.0 mi NNW 4.6 mph - 0.00 in Snow Light Snow
8:53 PM 26.1 °F 20.5 °F 23.0 °F 88% 29.97 in 9.0 mi ENE 4.6 mph - 0.00 in   Overcast
9:31 PM 28.4 °F 23.3 °F 24.8 °F 86% 29.98 in 1.8 mi Variable 4.6 mph - 0.01 in Snow Light Snow
9:42 PM 28.4 °F 23.3 °F 24.8 °F 86% 29.99 in 2.0 mi NNW 4.6 mph - 0.01 in Snow Light Snow
9:49 PM 28.4 °F 24.6 °F 24.8 °F 86% 29.99 in 9.0 mi NW 3.5 mph - 0.01 in Snow Light Snow
9:53 PM 28.0 °F 24.2 °F 24.1 °F 85% 29.99 in 9.0 mi WNW 3.5 mph - 0.01 in Snow Light Snow
10:31 PM 26.6 °F - 24.8 °F 93% 30.01 in 2.5 mi Calm Calm - 0.00 in Snow Light Snow
10:42 PM 26.6 °F 22.6 °F 24.8 °F 93% 30.01 in 4.0 mi ENE 3.5 mph - 0.00 in Snow Light Snow
10:53 PM 27.0 °F 21.6 °F 24.1 °F 89% 30.01 in 8.0 mi North 4.6 mph - 0.00 in Snow Light Snow
11:50 PM 26.6 °F 22.6 °F 24.8 °F 93% 30.03 in 3.0 mi North 3.5 mph - 0.00 in Snow Light Snow
11:53 PM 27.0 °F - 24.1 °F 89% 30.03 in 2.0 mi Calm Calm - 0.00 in Snow Light Snow